FW1762 Weather Reports


time (UTC)temp
C
wind
direction
speed
KPH
gust
KPH
rain 1hr
cm
rain 24hr
cm
rain mn
cm
humidity
%
barometer
mb
20260506073126 9 333 0.0 0.0 0.00 0.00 0.00 76 1013.5
20260506072641 9 321 0.0 0.0 0.00 0.00 0.00 76 1013.5
20260506072223 9 325 0.0 0.0 0.00 0.00 0.00 77 1013.5
20260506071741 9 69 0.0 0.0 0.00 0.00 0.00 77 1013.5
20260506071323 9 329 0.0 0.0 0.00 0.00 0.00 77 1013.5
20260506070523 9 298 0.0 0.0 0.00 0.00 0.00 76 1013.5
20260506062138 8 306 0.0 0.0 0.00 0.00 0.00 79 1013.2
20260506061736 8 289 0.0 0.0 0.00 0.00 0.00 80 1013.2
20260506061322 8 172 0.0 0.0 0.00 0.00 0.00 80 1013.2
20260506060521 8 129 0.0 0.0 0.00 0.00 0.00 80 1013.2
20260506051218 8 55 0.0 0.0 0.00 0.00 0.00 82 1012.9
20260506050738 8 60 0.0 0.0 0.00 0.00 0.00 82 1012.9
20260506050319 8 261 0.0 0.0 0.00 0.00 0.00 82 1012.9
20260506045041 8 355 0.0 0.0 0.00 0.00 0.00 82 1012.9
20260506044639 8 225 0.0 1.6 0.00 0.00 0.00 82 1012.9
20260506044238 8 46 0.0 0.0 0.00 0.00 0.00 82 1012.9
20260506043817 8 341 0.0 0.0 0.00 0.00 0.00 82 1012.9
20260506043043 8 355 0.0 0.0 0.00 0.00 0.00 82 1012.9
20260506042541 8 270 0.0 0.0 0.00 0.00 0.00 82 1012.9
20260506042117 8 330 0.0 0.0 0.00 0.00 0.00 82 1012.9
20260506041641 8 273 0.0 0.0 0.00 0.00 0.00 82 1012.9
20260506041238 8 273 0.0 0.0 0.00 0.00 0.00 81 1012.9
20260506040817 8 19 0.0 0.0 0.00 0.00 0.00 81 1012.9
20260506040040 8 45 0.0 0.0 0.00 0.00 0.00 81 1012.9
20260506035618 8 5 0.0 0.0 0.00 0.00 0.00 85 1012.9
20260506035143 8 92 0.0 0.0 0.00 0.00 0.00 81 1012.9
20260506034739 8 126 0.0 0.0 0.00 0.00 0.00 81 1012.9
20260506034315 9 302 0.0 0.0 0.00 0.00 0.00 82 1012.5
20260506033537 9 230 0.0 0.0 0.00 0.00 0.00 82 1012.9
20260506033036 9 107 0.0 0.0 0.00 0.00 0.00 82 1012.5
20260506032617 9 215 0.0 0.0 0.00 0.00 0.00 81 1012.9
20260506032137 9 9 0.0 0.0 0.00 0.00 0.00 81 1012.9
20260506031716 9 24 0.0 0.0 0.00 0.00 0.00 81 1012.9
20260506031241 9 57 0.0 0.0 0.00 0.00 0.00 81 1012.9
20260506030814 9 67 0.0 0.0 0.00 0.00 0.00 80 1012.9
20260506030041 9 78 0.0 0.0 0.00 0.00 0.00 80 1012.5
20260506025539 9 89 0.0 0.0 0.00 0.00 0.00 80 1012.9
20260506025115 10 74 0.0 0.0 0.00 0.00 0.00 80 1012.9
20260506024641 10 34 0.0 0.0 0.00 0.00 0.00 81 1012.9
20260506024215 10 137 0.0 0.0 0.00 0.00 0.00 81 1012.9
20260506023738 10 215 0.0 0.0 0.00 0.00 0.00 81 1012.9
20260506023315 10 294 0.0 0.0 0.00 0.00 0.00 81 1012.9
20260506022536 10 302 0.0 0.0 0.00 0.00 0.00 82 1012.9
20260506022040 10 32 0.0 0.0 0.00 0.00 0.00 82 1012.9
20260506021542 10 355 0.0 0.0 0.00 0.00 0.00 82 1012.9
20260506021113 10 350 0.0 0.0 0.00 0.00 0.00 82 1012.9
20260506020643 10 343 0.0 0.0 0.00 0.00 0.00 81 1012.9
20260506020214 10 37 0.0 0.0 0.00 0.00 0.00 81 1012.9
20260506015812 10 50 0.0 0.0 0.00 0.00 0.00 81 1012.9
20260506015040 10 344 0.0 0.0 0.00 0.00 0.00 81 1012.9
20260506014637 10 313 0.0 0.0 0.00 0.00 0.00 81 1012.9
20260506014236 10 91 0.0 0.0 0.00 0.00 0.00 80 1012.9
20260506013813 10 36 0.0 0.0 0.00 0.00 0.00 80 1012.9
20260506013041 10 36 0.0 0.0 0.00 0.00 0.00 79 1012.9
20260506012541 10 57 0.0 0.0 0.00 0.00 0.00 79 1012.9
20260506012038 10 71 0.0 0.0 0.00 0.00 0.00 79 1012.9
20260506011536 10 59 0.0 0.0 0.00 0.00 0.00 78 1012.9
20260506011038 10 178 0.0 0.0 0.00 0.00 0.00 78 1012.9
20260506010541 10 69 0.0 0.0 0.00 0.00 0.00 78 1013.2
20260506010039 10 274 0.0 0.0 0.00 0.00 0.00 77 1013.2
20260506005612 10 184 0.0 0.0 0.00 0.00 0.00 77 1012.9
20260506005139 10 217 0.0 0.0 0.00 0.00 0.00 77 1012.9
20260506004717 10 41 0.0 0.0 0.00 0.00 0.00 77 1012.9
20260506004310 11 345 0.0 0.0 0.00 0.00 0.00 77 1012.9
20260506003513 11 56 0.0 0.0 0.00 0.00 0.00 77 1012.9
20260506003039 11 113 0.0 0.0 0.00 0.00 0.00 76 1012.9
20260506002537 11 71 0.0 0.0 0.00 0.00 0.00 77 1012.9
20260506002113 11 280 0.0 0.0 0.00 0.00 0.00 76 1012.9
20260506001643 11 321 0.0 0.0 0.00 0.00 0.00 77 1012.9
20260506001240 11 96 0.0 0.0 0.00 0.00 0.00 76 1013.2
20260506000814 11 74 0.0 0.0 0.00 0.00 0.00 76 1013.2
20260506000042 11 63 0.0 0.0 0.00 0.00 0.00 75 1013.2
20260505235541 11 78 0.0 0.0 0.00 0.00 0.00 75 1013.2
20260505235114 11 82 0.0 0.0 0.00 0.00 0.00 76 1013.2
20260505234638 11 61 0.0 6.4 0.00 0.00 0.00 75 1012.9
20260505234213 11 36 0.0 0.0 0.00 0.00 0.00 75 1013.2
20260505233740 11 308 0.0 0.0 0.00 0.00 0.00 75 1012.9
20260505233313 11 55 0.0 0.0 0.00 0.00 0.00 76 1012.9
20260505232536 11 329 0.0 0.0 0.00 0.00 0.00 76 1012.9
20260505232038 11 260 0.0 0.0 0.00 0.00 0.00 78 1012.9
20260505231543 11 67 0.0 0.0 0.00 0.00 0.00 78 1012.9
20260505231041 11 131 0.0 0.0 0.00 0.00 0.00 77 1012.9
20260505230640 11 76 0.0 0.0 0.00 0.00 0.00 77 1013.2
20260505230238 12 70 0.0 0.0 0.00 0.00 0.00 76 1012.9
20260505225813 12 66 0.0 0.0 0.00 0.00 0.00 76 1013.2
20260505225039 12 114 0.0 0.0 0.00 0.00 0.00 76 1013.2
20260505224539 12 102 0.0 1.6 0.00 0.00 0.00 75 1012.9
20260505224038 12 38 1.6 1.6 0.00 0.00 0.00 75 1012.9
20260505223538 12 11 1.6 1.6 0.00 0.00 0.00 75 1012.9
20260505223036 12 49 0.0 1.6 0.00 0.00 0.00 75 1012.9
20260505222538 12 56 0.0 0.0 0.00 0.00 0.00 75 1012.9
20260505222114 12 53 0.0 0.0 0.00 0.00 0.00 75 1012.9
20260505221712 12 245 0.0 0.0 0.00 0.00 0.00 75 1012.9
20260505221243 12 81 0.0 0.0 0.00 0.00 0.00 75 1012.9
20260505220543 12 80 0.0 0.0 0.00 0.00 0.00 74 1012.9
20260505220039 12 115 0.0 0.0 0.00 0.00 0.00 74 1012.9
20260505215542 12 32 0.0 0.0 0.00 0.00 0.00 74 1012.9
20260505215137 12 99 0.0 0.0 0.00 0.00 0.00 73 1012.9
20260505214712 12 61 0.0 0.0 0.00 0.00 0.00 73 1012.9
20260505214310 12 117 0.0 0.0 0.00 0.00 0.00 73 1012.9
20260505213539 12 97 0.0 0.0 0.00 0.00 0.00 72 1012.5
20260505213138 12 129 0.0 0.0 0.00 0.00 0.00 71 1012.5
20260505212713 13 182 0.0 0.0 0.00 0.00 0.00 72 1012.5
20260505212243 13 62 0.0 0.0 0.00 0.00 0.00 73 1012.5
20260505211813 13 5 0.0 0.0 0.00 0.00 0.00 73 1012.5
20260505211042 13 293 0.0 0.0 0.00 0.00 0.00 73 1012.5
20260505210540 13 355 0.0 0.0 0.00 0.00 0.00 73 1012.5
20260505210038 13 60 0.0 0.0 0.00 0.00 0.00 72 1012.5
20260505205636 13 171 0.0 0.0 0.00 0.00 0.00 72 1012.5
20260505205210 13 91 0.0 0.0 0.00 0.00 0.00 72 1012.5
20260505204743 13 114 0.0 0.0 0.00 0.00 0.00 72 1012.2
20260505204311 13 78 0.0 0.0 0.00 0.00 0.00 72 1012.2
20260505203541 13 289 0.0 0.0 0.00 0.00 0.00 72 1012.2
20260505203042 13 304 0.0 0.0 0.00 0.00 0.00 72 1012.2
20260505202538 13 319 0.0 0.0 0.00 0.00 0.00 71 1012.2
20260505202038 13 46 0.0 0.0 0.00 0.00 0.00 71 1012.2
20260505201538 13 33 0.0 3.2 0.00 0.00 0.00 72 1012.2
20260505201114 13 36 0.0 3.2 0.00 0.00 0.00 71 1012.2
20260505200642 13 50 0.0 0.0 0.00 0.00 0.00 71 1012.2
20260505200240 13 48 0.0 0.0 0.00 0.00 0.00 71 1012.2
20260505195813 13 61 0.0 0.0 0.00 0.00 0.00 72 1011.9
20260505195042 13 82 0.0 0.0 0.00 0.00 0.00 72 1011.9
20260505194639 14 79 0.0 0.0 0.00 0.00 0.00 72 1011.9
20260505194215 14 61 0.0 0.0 0.00 0.00 0.00 72 1011.5
20260505193743 14 60 0.0 0.0 0.00 0.00 0.00 72 1011.9
20260505193313 14 308 0.0 0.0 0.00 0.00 0.00 71 1011.5
20260505192544 14 307 0.0 0.0 0.00 0.00 0.00 71 1011.5
20260505192038 14 307 0.0 0.0 0.00 0.00 0.00 71 1011.5
20260505191636 14 360 0.0 0.0 0.00 0.00 0.00 71 1011.5
20260505191213 14 302 0.0 0.0 0.00 0.00 0.00 71 1011.5
20260505190743 14 259 0.0 0.0 0.00 0.00 0.00 70 1011.5
20260505190314 14 219 0.0 0.0 0.00 0.00 0.00 70 1011.5
20260505185539 14 218 0.0 0.0 0.00 0.00 0.00 70 1011.5
20260505185037 14 213 0.0 0.0 0.00 0.00 0.00 69 1011.5
20260505184544 14 213 0.0 0.0 0.00 0.00 0.00 70 1011.5
20260505184037 14 200 0.0 0.0 0.00 0.00 0.00 69 1011.2
20260505183611 14 305 0.0 0.0 0.00 0.00 0.00 69 1011.2
20260505183142 14 28 0.0 0.0 0.00 0.00 0.00 69 1011.2
20260505182713 14 297 0.0 0.0 0.00 0.00 0.00 68 1011.2
20260505182242 14 238 0.0 0.0 0.00 0.00 0.00 68 1011.2
20260505181813 15 342 0.0 0.0 0.00 0.00 0.00 68 1011.2
20260505181037 15 293 0.0 0.0 0.00 0.00 0.00 69 1011.2
20260505180541 15 275 0.0 0.0 0.00 0.00 0.00 69 1011.2
20260505180038 15 288 0.0 0.0 0.00 0.00 0.00 68 1011.2
20260505175614 15 261 0.0 0.0 0.00 0.00 0.00 68 1011.2
20260505175212 15 258 0.0 0.0 0.00 0.00 0.00 68 1011.2
20260505174738 15 259 0.0 0.0 0.00 0.00 0.00 68 1011.2
20260505174314 15 159 0.0 0.0 0.00 0.00 0.00 68 1011.2
20260505173542 15 292 0.0 0.0 0.00 0.00 0.00 69 1011.2
20260505173036 15 292 0.0 0.0 0.00 0.00 0.00 68 1011.2
20260505172533 15 281 0.0 0.0 0.00 0.00 0.00 69 1011.2
20260505172035 15 243 0.0 0.0 0.00 0.00 0.00 68 1011.5
20260505171535 15 298 0.0 0.0 0.00 0.00 0.00 68 1011.5
20260505171036 15 288 0.0 0.0 0.00 0.00 0.00 67 1011.5
20260505170534 15 304 0.0 0.0 0.00 0.00 0.00 67 1011.5
20260505170035 15 304 0.0 0.0 0.00 0.00 0.00 66 1011.5
20260505165534 15 280 0.0 0.0 0.00 0.00 0.00 66 1011.5
20260505165035 15 282 0.0 0.0 0.00 0.00 0.00 66 1011.5
20260505164533 15 266 0.0 0.0 0.00 0.00 0.00 65 1011.2
20260505164036 15 299 0.0 0.0 0.00 0.00 0.00 65 1011.2
20260505163535 16 302 0.0 0.0 0.00 0.00 0.00 64 1011.2
20260505163038 16 305 0.0 0.0 0.00 0.00 0.00 64 1011.2
20260505162547 16 316 0.0 0.0 0.00 0.00 0.00 63 1011.2
20260505162035 16 246 0.0 0.0 0.00 0.00 0.00 63 1011.2
20260505161534 16 242 0.0 0.0 0.00 0.00 0.00 64 1011.5
20260505161034 16 242 0.0 0.0 0.00 0.00 0.00 63 1011.5
20260505160536 16 238 0.0 0.0 0.00 0.00 0.00 63 1011.2
20260505153035 16 313 0.0 0.0 0.00 0.00 0.00 63 1011.5
20260505152536 16 192 0.0 0.0 0.00 0.00 0.00 64 1011.5
20260505152033 16 184 0.0 0.0 0.00 0.00 0.00 64 1011.5
20260505151534 16 270 0.0 0.0 0.00 0.00 0.00 63 1011.5
20260505151030 16 282 0.0 0.0 0.00 0.00 0.00 63 1011.5
20260505150533 16 304 0.0 0.0 0.00 0.00 0.00 63 1011.9
20260505140642 16 346 0.0 0.0 0.00 0.00 0.00 60 1011.9
20260505140232 16 5 0.0 0.0 0.00 0.00 0.00 60 1011.9
20260505125028 16 254 0.0 0.0 0.00 0.00 0.00 59 1012.2
20260505124530 16 143 0.0 0.0 0.00 0.00 0.00 60 1012.2
20260505124030 16 330 0.0 0.0 0.00 0.00 0.00 61 1012.2
20260505123530 16 51 0.0 0.0 0.00 0.00 0.00 60 1012.2
20260505123027 16 42 0.0 0.0 0.00 0.00 0.00 61 1012.2
20260505122528 16 111 0.0 0.0 0.00 0.00 0.00 62 1012.2
20260505122029 16 169 0.0 0.0 0.00 0.00 0.00 62 1012.2
20260505121527 16 334 1.6 1.6 0.00 0.00 0.00 63 1012.2
20260505121032 16 72 1.6 1.6 0.00 0.00 0.00 62 1012.2
20260505120527 16 47 0.0 0.0 0.00 0.00 0.00 63 1012.2
20260505120027 16 306 0.0 0.0 0.00 0.00 0.00 63 1012.2
20260505115528 16 223 0.0 0.0 0.00 0.00 0.00 66 1012.2
20260505115042 16 52 0.0 0.0 0.00 0.00 0.00 66 1012.2
20260505114626 16 219 0.0 0.0 0.00 0.00 0.00 66 1012.2
20260505114141 15 236 0.0 0.0 0.00 0.00 0.00 67 1012.2
20260505113741 15 5 0.0 0.0 0.00 0.00 0.00 68 1012.2
20260505113328 15 42 0.0 0.0 0.00 0.00 0.00 71 1012.5
20260505112526 15 333 0.0 0.0 0.00 0.00 0.00 70 1012.5
20260505112027 15 212 0.0 0.0 0.00 0.00 0.00 70 1012.5
20260505111527 15 105 1.6 1.6 0.00 0.00 0.00 70 1012.5
20260505111040 15 58 0.0 0.0 0.00 0.00 0.00 69 1012.5
20260505110638 15 269 0.0 6.4 0.00 0.00 0.00 73 1012.5
20260505110235 15 308 0.0 0.0 0.00 0.00 0.00 72 1012.9
20260505102026 13 350 0.0 0.0 0.00 0.00 0.00 79 1013.2
20260505101526 13 236 0.0 0.0 0.00 0.00 0.00 79 1013.2
20260505101025 12 268 0.0 0.0 0.00 0.00 0.00 80 1013.2
20260505100526 12 310 0.0 0.0 0.00 0.00 0.00 81 1013.2
20260505100026 12 116 0.0 0.0 0.00 0.00 0.00 81 1013.2
20260505095525 12 304 0.0 0.0 0.00 0.00 0.00 81 1013.2
20260505095023 12 200 0.0 0.0 0.00 0.00 0.00 81 1013.2
20260505094524 12 34 0.0 3.2 0.00 0.00 0.00 81 1013.2
20260505094041 12 86 0.0 3.2 0.00 0.00 0.00 81 1013.2
20260505093624 12 67 0.0 1.6 0.00 0.00 0.00 81 1013.2
20260505093223 12 330 1.6 1.6 0.00 0.00 0.00 81 1013.2
20260505092743 12 31 1.6 3.2 0.00 0.00 0.00 81 1013.2
20260505092324 12 254 0.0 0.0 0.00 0.00 0.00 82 1013.2
20260505091525 12 244 1.6 1.6 0.00 0.00 0.00 81 1013.2
20260505091036 12 355 1.6 1.6 0.00 0.00 0.00 81 1013.2
20260505090625 12 92 0.0 1.6 0.00 0.00 0.00 81 1013.2
20260505085523 12 227 0.0 0.0 0.00 0.00 0.00 83 1013.2
20260505085043 12 227 0.0 0.0 0.00 0.00 0.00 83 1013.2
20260505084639 12 226 0.0 0.0 0.00 0.00 0.00 84 1013.2
20260505084222 12 227 0.0 0.0 0.00 0.00 0.00 83 1013.5
20260505083745 12 134 0.0 0.0 0.00 0.00 0.00 84 1013.2
20260505083322 12 102 0.0 0.0 0.00 0.00 0.00 84 1013.5
20260505082524 12 144 0.0 0.0 0.00 0.00 0.00 85 1013.5
20260505082025 12 360 0.0 0.0 0.00 0.00 0.00 86 1013.5
20260505081522 12 250 0.0 0.0 0.00 0.00 0.00 86 1013.5
20260505081042 12 195 0.0 0.0 0.00 0.00 0.00 86 1013.5
20260505080623 12 296 0.0 0.0 0.00 0.00 0.00 86 1013.5
20260505080141 11 292 0.0 0.0 0.00 0.00 0.00 87 1013.5
20260505075722 11 258 0.0 0.0 0.00 0.00 0.00 87 1013.5
20260505075319 11 105 0.0 0.0 0.00 0.00 0.00 87 1013.5
20260505074537 11 269 0.0 0.0 0.00 0.00 0.00 86 1013.2
20260505074041 11 271 0.0 0.0 0.00 0.00 0.00 86 1013.2
20260505073640 11 239 0.0 0.0 0.00 0.00 0.00 86 1013.2